Tracy, MN

1:13 PM CDT on March 24, 2017 (GMT -0500)
Tracy

Weather History for KTKC - November, 2013

Change the Weather History Date:

Friday, November 8, 2013

  Actual Average (KMML) Record (KMML)
Temperature  
Mean Temperature 38 °F -  
Max Temperature 47 °F 44 °F 78 °F (1999)
Min Temperature 30 °F 25 °F 1 °F (2003)
Degree Days  
Heating Degree Days 26    
Moisture  
Dew Point 31 °F    
Average Humidity 72    
Maximum Humidity 86    
Minimum Humidity 61    
Precipitation  
Precipitation 0.00 in - - ()
Sea Level Pressure  
Sea Level Pressure 29.82 in    
Wind  
Wind Speed 12 mph (SSW)    
Max Wind Speed 23 mph    
Max Gust Speed 32 mph    
Visibility 10 miles    
Events      
Averages and records for this station are not official NWS values.
T = Trace of Precipitation, MM = Missing Value Source: NWS Daily Summary

Daily Weather History Graph

Daily Weather History Graph

Search for Another Location

Airport or City:

Trip Planner

Search our weather history database for the weather conditions in past years. The results will help you decide how hot, cold, wet, or windy it might be!

Date:

Astronomy

Nov. 08, 2013 Rise Set
Actual Time 7:09 AM CST 5:02 PM CST
Civil Twilight 6:38 AM CST 5:33 PM CST
Nautical Twilight 6:03 AM CST 6:08 PM CST
Astronomical Twilight 5:29 AM CST 6:42 PM CST
Moon 12:05 PM CST (11/8) 10:25 PM CST (11/8)
Length of Visible Light 10h 55m
Length of Day
9h 53m
Waxing Crescent, 33% of the Moon is Illuminated
Nov 8
Waxing Crescent
Nov 9
First Quarter
Nov 17
Full
Nov 25
Last Quarter
Dec 2
New

Hourly Weather History & Observations

Time (CST) Temp. Windchill Dew Point Humidity Pressure Visibility Wind Dir Wind Speed Gust Speed Precip Events Conditions
12:18 AM 31.6 °F 23.1 °F 23.9 °F 73% 30.16 in 10.0 mi SW 10.4 mph - N/A   Clear
12:38 AM 31.1 °F 23.7 °F 23.9 °F 75% 30.16 in 10.0 mi SW 8.1 mph - N/A   Clear
12:57 AM 31.1 °F 21.9 °F 24.3 °F 76% 30.16 in 10.0 mi SW 11.5 mph - N/A   Clear
1:17 AM 31.1 °F 22.4 °F 24.3 °F 76% 30.15 in 10.0 mi SW 10.4 mph - N/A   Clear
1:38 AM 31.6 °F 22.6 °F 24.4 °F 75% 30.15 in 10.0 mi SW 11.5 mph - N/A   Clear
1:57 AM 31.8 °F 23.3 °F 24.4 °F 74% 30.14 in 10.0 mi SW 10.4 mph - N/A   Clear
2:18 AM 31.6 °F 22.1 °F 24.1 °F 74% 30.14 in 10.0 mi SW 12.7 mph - N/A   Clear
2:38 AM 31.6 °F 22.6 °F 24.1 °F 74% 30.14 in 10.0 mi SW 11.5 mph - N/A   Clear
2:57 AM 31.6 °F 23.1 °F 23.9 °F 73% 30.13 in 10.0 mi SSW 10.4 mph - N/A   Clear
3:17 AM 32.0 °F 24.2 °F 23.9 °F 72% 30.11 in 10.0 mi SSW 9.2 mph - N/A   Clear
3:38 AM 30.6 °F 21.8 °F 23.0 °F 74% 30.11 in 10.0 mi SSW 10.4 mph - N/A   Clear
3:58 AM 30.2 °F 21.9 °F 22.1 °F 72% 30.10 in 10.0 mi SSW 9.2 mph - N/A   Clear
4:17 AM 30.4 °F 21.5 °F 22.1 °F 71% 30.09 in 10.0 mi South 10.4 mph - N/A   Clear
4:38 AM 30.2 °F 20.8 °F 22.3 °F 72% 30.08 in 10.0 mi SSW 11.5 mph - N/A   Clear
4:58 AM 32.0 °F - 22.8 °F 69% 30.06 in 10.0 mi Calm Calm - N/A   Clear
5:17 AM 32.0 °F - 22.8 °F 69% 30.05 in 10.0 mi Calm Calm - N/A   Clear
5:38 AM 32.0 °F - 22.8 °F 69% 30.04 in 10.0 mi Calm Calm - N/A   Clear
5:58 AM 32.2 °F 26.7 °F 23.0 °F 69% 30.04 in 10.0 mi South 5.8 mph - N/A   Scattered Clouds
6:18 AM 32.4 °F 24.0 °F 23.5 °F 70% 30.02 in 10.0 mi South 10.4 mph 17.3 mph N/A   Mostly Cloudy
6:37 AM 32.7 °F 23.0 °F 24.3 °F 71% 30.01 in 10.0 mi South 13.8 mph - N/A   Overcast
6:58 AM 32.9 °F 24.1 °F 24.8 °F 72% 30.00 in 10.0 mi South 11.5 mph - N/A   Overcast
7:18 AM 33.3 °F 24.6 °F 24.8 °F 71% 29.99 in 10.0 mi SSE 11.5 mph - N/A   Overcast
7:37 AM 32.9 °F 24.7 °F 25.5 °F 74% 29.97 in 10.0 mi SSE 10.4 mph - N/A   Mostly Cloudy
7:57 AM 33.3 °F 24.6 °F 25.7 °F 74% 29.96 in 10.0 mi SSE 11.5 mph - N/A   Scattered Clouds
8:18 AM 33.8 °F 24.3 °F 26.2 °F 74% 29.94 in 10.0 mi SSE 13.8 mph - N/A   Clear
8:37 AM 34.2 °F 24.8 °F 26.4 °F 73% 29.92 in 10.0 mi SSE 13.8 mph - N/A   Clear
8:57 AM 35.6 °F 27.1 °F 27.0 °F 71% 29.90 in 10.0 mi SSE 12.7 mph - N/A   Clear
9:18 AM 36.9 °F 27.8 °F 27.1 °F 68% 29.88 in 10.0 mi SSE 15.0 mph 19.6 mph N/A   Clear
9:37 AM 37.4 °F 28.5 °F 27.5 °F 67% 29.86 in 10.0 mi SSE 15.0 mph 21.9 mph N/A   Clear
9:57 AM 38.7 °F 29.5 °F 27.5 °F 64% 29.85 in 10.0 mi SSE 17.3 mph - N/A   Scattered Clouds
10:18 AM 38.7 °F 29.1 °F 27.9 °F 65% 29.82 in 10.0 mi SSE 18.4 mph 25.3 mph N/A   Scattered Clouds
10:38 AM 39.4 °F 29.8 °F 28.2 °F 64% 29.80 in 10.0 mi SSE 19.6 mph 27.6 mph N/A   Scattered Clouds
10:57 AM 40.8 °F 31.1 °F 28.8 °F 62% 29.77 in 10.0 mi SSE 21.9 mph 26.5 mph N/A   Mostly Cloudy
11:17 AM 41.7 °F 32.1 °F 29.1 °F 61% 29.77 in 10.0 mi South 23.0 mph 31.1 mph N/A   Mostly Cloudy
11:38 AM 41.0 °F 32.8 °F 29.7 °F 64% 29.74 in 10.0 mi South 16.1 mph 29.9 mph N/A   Mostly Cloudy
11:57 AM 41.4 °F 32.4 °F 30.2 °F 65% 29.72 in 10.0 mi South 19.6 mph 29.9 mph N/A   Mostly Cloudy
12:18 PM 42.1 °F 33.1 °F 30.9 °F 65% 29.69 in 10.0 mi South 20.7 mph 31.1 mph N/A   Overcast
12:37 PM 42.8 °F 34.5 °F 31.3 °F 64% 29.68 in 10.0 mi South 18.4 mph 32.2 mph N/A   Mostly Cloudy
12:58 PM 41.9 °F 33.4 °F 31.6 °F 67% 29.66 in 10.0 mi South 18.4 mph 25.3 mph N/A   Mostly Cloudy
1:17 PM 42.4 °F 33.8 °F 32.0 °F 67% 29.64 in 10.0 mi South 19.6 mph 26.5 mph N/A   Scattered Clouds
1:37 PM 42.3 °F 33.6 °F 32.0 °F 67% 29.63 in 10.0 mi South 19.6 mph 28.8 mph N/A   Clear
1:58 PM 42.1 °F 34.2 °F 32.4 °F 68% 29.62 in 10.0 mi South 16.1 mph 25.3 mph N/A   Clear
2:18 PM 42.8 °F 35.4 °F 33.1 °F 69% 29.60 in 10.0 mi South 15.0 mph 27.6 mph N/A   Clear
2:37 PM 43.0 °F 36.0 °F 33.8 °F 70% 29.61 in 10.0 mi South 13.8 mph 21.9 mph N/A   Clear
2:58 PM 43.7 °F 38.1 °F 34.5 °F 70% 29.60 in 10.0 mi South 10.4 mph - N/A   Clear
3:18 PM 44.8 °F 39.9 °F 34.7 °F 68% 29.60 in 10.0 mi South 9.2 mph - N/A   Clear
3:37 PM 46.4 °F 41.1 °F 35.1 °F 65% 29.61 in 10.0 mi SSW 11.5 mph 16.1 mph N/A   Clear
3:57 PM 47.3 °F - 35.6 °F 64% 29.61 in 10.0 mi SSW 9.2 mph 17.3 mph N/A   Clear
4:17 PM 47.3 °F - 36.1 °F 65% 29.61 in 10.0 mi Calm Calm - N/A   Clear
4:38 PM 46.4 °F 40.4 °F 36.5 °F 68% 29.60 in 10.0 mi SSW 13.8 mph - N/A   Clear
4:57 PM 45.7 °F 39.5 °F 36.9 °F 71% 29.61 in 10.0 mi SW 13.8 mph - N/A   Clear
5:17 PM 45.5 °F 39.6 °F 37.4 °F 73% 29.60 in 10.0 mi SW 12.7 mph - N/A   Mostly Cloudy
5:38 PM 45.9 °F 39.1 °F 37.6 °F 73% 29.59 in 10.0 mi SW 16.1 mph - N/A   Overcast
5:58 PM 46.4 °F 39.8 °F 37.9 °F 72% 29.60 in 10.0 mi SW 16.1 mph 21.9 mph N/A   Mostly Cloudy
6:18 PM 46.6 °F - 38.3 °F 73% 29.61 in 10.0 mi SW 17.3 mph - N/A   Mostly Cloudy
6:38 PM 46.2 °F 39.8 °F 38.5 °F 74% 29.62 in 10.0 mi West 15.0 mph 27.6 mph N/A   Mostly Cloudy
6:58 PM 45.5 °F 40.3 °F 39.0 °F 78% 29.63 in 10.0 mi West 10.4 mph 19.6 mph N/A   Mostly Cloudy
7:17 PM 45.0 °F 39.3 °F 39.2 °F 80% 29.63 in 10.0 mi West 11.5 mph 21.9 mph N/A   Scattered Clouds
7:37 PM 44.4 °F 39.5 °F 39.2 °F 82% 29.64 in 10.0 mi West 9.2 mph 17.3 mph N/A   Clear
7:58 PM 44.6 °F 38.8 °F 38.8 °F 80% 29.64 in 10.0 mi WSW 11.5 mph 20.7 mph N/A   Clear
8:18 PM 45.5 °F 40.3 °F 39.6 °F 80% 29.65 in 10.0 mi West 10.4 mph 17.3 mph N/A   Mostly Cloudy
8:37 PM 45.1 °F 39.1 °F 39.6 °F 81% 29.65 in 10.0 mi WSW 12.7 mph - N/A   Overcast
8:58 PM 45.0 °F 38.5 °F 39.2 °F 80% 29.65 in 10.0 mi WSW 13.8 mph 19.6 mph N/A   Overcast
9:18 PM 45.0 °F 38.2 °F 39.2 °F 80% 29.66 in 10.0 mi WSW 15.0 mph 18.4 mph N/A   Overcast
9:38 PM 45.5 °F 40.3 °F 39.0 °F 78% 29.67 in 10.0 mi West 10.4 mph 17.3 mph N/A   Overcast
9:57 PM 45.0 °F 39.7 °F 39.2 °F 80% 29.67 in 10.0 mi West 10.4 mph - N/A   Overcast
10:18 PM 44.8 °F 41.0 °F 39.2 °F 81% 29.68 in 10.0 mi West 6.9 mph - N/A   Overcast
10:37 PM 44.2 °F 40.3 °F 39.2 °F 82% 29.67 in 10.0 mi West 6.9 mph - N/A   Mostly Cloudy
10:57 PM 44.6 °F 39.7 °F 39.6 °F 82% 29.69 in 10.0 mi West 9.2 mph 17.3 mph N/A   Overcast
11:18 PM 45.0 °F 39.3 °F 40.1 °F 83% 29.69 in 10.0 mi West 11.5 mph 17.3 mph N/A   Overcast
11:37 PM 44.8 °F 41.6 °F 40.1 °F 84% 29.70 in 10.0 mi West 5.8 mph 17.3 mph N/A   Mostly Cloudy
11:58 PM 44.1 °F 39.5 °F 40.1 °F 86% 29.71 in 10.0 mi West 8.1 mph - N/A   Clear